sat.trackr.live / text

‹ back to catalog

STARLINK-3513

NORAD 51756 · 2022-016AU

PAYLOAD ACTIVE UNKNOWN

§ Identity

Operator
Country
US
Launch date
2022-02-21
Launch site
AFETR
Launch vehicle
Mass (kg)
RCS (m²)

Purposes: comms

External: N2YO · Heavens-Above · Gunter

§ Orbital elements

Epoch: 2026-05-24T18:34:27.073344Z

Period
95.44 min
Inclination
53.2143°
Eccentricity
0.0001245
Mean motion
15.08816415 rev/d
Perigee alt
539.0 km
Apogee alt
540.7 km
Semi-major
6,918.0 km
B*
3.4570e-4
RAAN
327.5640°
Arg perigee
105.7882°
Mean anomaly
254.3247°
Rev number
23,519

§ Raw data

STARLINK-35131 51756U 22016AU  26144.77392446  .00005215  00000+0  34570-3 0  99982 51756  53.2143 327.5640 0001245 105.7882 254.3247 15.08816415235190

JSON: /api/v1/satellites/51756 · /tle

For live sub-satellite position, see the globe view (requires WebGL).

§ Visibility from observer

Set your observer location to see the next 7 days of passes ≥ 10°. The values pass through the URL so the page stays shareable.

No JS? Fill the form by hand. The geolocation button needs JavaScript.